Regional Weather Roundup
Issued by NWS

Home | Current Version | Previous Version | Text Only | Print | Product List | Glossary Off
Versions: 1 2 3 4 5 6 7 8 9 10 11 12 13 14 15 16 17 18 19 20 21 22 23 24 25 26 27 28 29 30 31 32 33 34 35 36 37 38 39 40 41 42 43 44 45 46 47 48 49 50

000
ASUS45 KBOU 201707
RWRCO

WEATHER ROUNDUP FOR COLORADO
NATIONAL WEATHER SERVICE DENVER/BOULDER CO
1100 AM MDT WED AUG 20 2014

NOTE: "FAIR" INDICATES FEW OR NO CLOUDS BELOW 12000 FEET WITH NO
SIGNIFICANT WEATHER AND/OR OBSTRUCTIONS TO VISIBILITY.

COZ001>005-013-030-031-201800-
...NORTHWEST COLORADO...

CITY           SKY/WX    TMP DP  RH WIND       PRES   REMARKS
CRAIG          MOSUNNY   69  54  58 SW9G18    30.10S
HAYDEN         PTSUNNY   66  48  52 SW6       30.12S
MEEKER         PTSUNNY   68  52  56 VRB5      30.11S
MOUNT WERNER   NOT AVBL
STEAMBOAT SPGS CLOUDY    62  52  69 S3        30.14S
WALDEN         PTSUNNY   61  46  59 SW20      30.19S
$$

COZ006>008-011-201800-
...WEST CENTRAL VALLEYS...

CITY           SKY/WX    TMP DP  RH WIND       PRES   REMARKS
GRAND JUNCTION PTSUNNY   70  59  68 VRB3      30.06R
MONTROSE       MOSUNNY   71  58  63 NW7       30.12S
EAGLE          PTSUNNY   66  55  68 CALM      30.15F
RIFLE          CLOUDY    68  56  65 N5        30.08S
DELTA          MOSUNNY   74  55  50 CALM      30.08S HAZE
NUCLA          MOSUNNY   72  46  40 SW8       30.16S
$$

COZ017>023-064>068-201800-
...SOUTHWEST COLORADO...

CITY           SKY/WX    TMP DP  RH WIND       PRES   REMARKS
DURANGO        SUNNY     71  42  35 MISG      30.17S
CORTEZ         MOSUNNY   70  51  51 S3        30.16R
PAGOSA SPRINGS   N/A     63  52  67 SE7       30.25R
TELLURIDE      MOSUNNY   63  43  48 SW6       30.30S
WOLF CREEK PAS NOT AVBL
$$

COZ009-010-012-014-032>034-037-058>063-201800-
...CENTRAL COLORADO...

CITY           SKY/WX    TMP DP  RH WIND       PRES   REMARKS
ASPEN          PTSUNNY   65  50  58 N7        30.19S
BUENA VISTA    MOSUNNY   69  41  36 W14       30.18S
COPPER MTN     CLOUDY    54  45  71 W17       30.45S
BERTHOUD PASS  FOG       43  41  93 NW14G35   30.47R VSB 3/4
COTTONWOOD PAS MOSUNNY   61  41  48 NW6       30.31S
GUNNISON       MOSUNNY   66  45  45 SW10      30.22S
KREMMLING      MOSUNNY   70  50  49 W14G22    30.18S
LEADVILLE      LGT RAIN  55  43  63 NW9       30.30S
MONARCH PASS   FOG       43  41  93 SW23G33   30.55R VSB<1/4
SALIDA         MOSUNNY   70  45  41 SW16G22   30.22S
SUNLIGHT       CLOUDY    54  50  87 CALM      30.40R
WILKERSON PASS NOT AVBL
$$

COZ069>075-201800-
...SAN LUIS VALLEY/SANGRE DE CRISTO MOUNTAINS...

CITY           SKY/WX    TMP DP  RH WIND       PRES   REMARKS
ALAMOSA        CLOUDY    70  45  40 W5        30.17S
LA VETA PASS   NOT AVBL
SAGUACHE       PTSUNNY   68  45  42 NW15      30.21S
$$

COZ035-036-038>040-201800-
...NORTHERN COLORADO FRONT RANGE...

CITY           SKY/WX    TMP DP  RH WIND       PRES   REMARKS
DENVER INTL AP MOSUNNY   78  51  38 CALM      29.96F
DMNS CITY PARK   N/A     80  50  34 S5        29.96S
AURORA         MOSUNNY   75  51  42 VRB2      29.99S
FRONT RANGE AP MOSUNNY   77  54  44 NE6       29.98
ERIE MUNI ARPT SUNNY     80  49  33 S5        29.94S
BOULDER MUN AP MOSUNNY   82  43  24 SW12G18   29.93F
CENTENNIAL     MOSUNNY   76  49  38 NE5       30.00R
BROOMFIELD     PTSUNNY   79  48  34 S6        29.98S
FORT COLLINS   SUNNY     81  54  39 SE8       29.93F
LONGMONT       SUNNY     84  53  33 E5        29.94F
$$

COZ041-046-047-076>085-087-088-201800-
...PIKES PEAK/PALMER DIVIDE AND SOUTHERN FOOTHILLS...

CITY           SKY/WX    TMP DP  RH WIND       PRES   REMARKS
COLO. SPRINGS  PTSUNNY   80  46  30 CALM      30.02R
A. F. ACADEMY  MOSUNNY   77  47  33 SW12      30.03S
ELLICOTT       MOSUNNY   76  47  35 SW6       30.00S
FALCON         MOSUNNY   77  45  31 NW5       30.07S
FORT CARSON    PTSUNNY   81  55  41 SE6       29.99S
LIMON          SUNNY     82  45  27 NW12      29.96S
MONUMENT HILL  SUNNY     77  46  33 NW8       30.07S
TRINIDAD       PTSUNNY   82  46  28 W13       30.00S
$$

COZ042>045-048>051-090-091-201800-
...NORTHEAST COLORADO...

CITY           SKY/WX    TMP DP  RH WIND       PRES   REMARKS
GREELEY ARPT   SUNNY     82  55  39 SE5       29.93S
AKRON          SUNNY     80  54  40 NW9       29.92R
BURLINGTON     SUNNY     86  52  30 NW12      29.88R
WRAY             N/A     82  56  41 N14       29.85S
STERLING       SUNNY     82  64  54 SE5       29.86S
HOLYOKE        NOT AVBL
FORT MORGAN    SUNNY     81  57  43 S7        29.91F
$$

COZ086-089-092>099-201800-
...SOUTHEAST COLORADO...

CITY           SKY/WX    TMP DP  RH WIND       PRES   REMARKS
PUEBLO         MOSUNNY   84  51  31 W6        29.91S
LA JUNTA       MOSUNNY   86  53  32 W7        29.88R
LAMAR          SUNNY     90  54  29 CALM      29.83S
SPRINGFIELD      N/A     89  50  26 SW10G21   29.90R
$$


USA.gov is the U.S. government's official web portal to all federal, state and local government web resources and services.